Content
SEND FEEDBACK

Daily
Averages
Monthly
Summary
United Kingdom

LONDON, ENGLAND


Home > Europe > United Kingdom > England
Elevation: 203 feet     Latitude: 51 09N     Longitude: 000 11W

WEATHER
 
SELECT A DAY
Number of Records: 288,855;   Date Range: 7/1/96 - 4/17/14
 
SHARE

PRINT THIS DATA

[ ← Previous Day ]
WEATHER ALMANAC - APRIL 21, 2013
[ Next Day → ]
[ °C ]   °F
Weather ElementAverageHighLow
Temperature44.6 °F57.2 °F (2:20 pm)30.2 °F (4:20 am)
Dewpoint33.7 °F39.2 °F (3:20 pm)28.4 °F (3:20 am)
Humidity68.7 %93 % (2:20 am)38 % (1:50 pm)
Barometer30.16 in30.33 in (1:20 am)30.04 in (5:50 pm)
Wind Speed5.3 mph15 mph (4:50 pm)
Weather ElementAverage
Visibility5.9 mi
Wind DirectionESE (104.8 °)

Weather ElementTotal
Precipitation---
Heating Degree Days21.3 (Base 65)
Averaged from 46 records on April 21, 2013
WEATHER CONDITIONS BREAKOUT
WIND DIRECTION BREAKOUT
WEATHER BY HOUR - APRIL 21, 2013
[ °C ]   °F
Local TimeTemperatureDewpointHumidityBarometerVisibilityWind DirectionWind SpeedGust SpeedPrecipitationEventsConditions
1:20 AM35.6 °F32.0 °F87 %30.33 inVariable2.3 mphClear
1:50 AM33.8 °F30.2 °F87 %30.33 inVariable3.5 mphClear
2:20 AM33.8 °F32.0 °F93 %30.33 inCalmClear
2:50 AM33.8 °F30.2 °F87 %30.30 inCalmClear
3:20 AM32.0 °F28.4 °F87 %30.30 inWest (270°)3.5 mphClear
3:50 AM32.0 °F30.2 °F93 %30.30 inCalmClear
4:20 AM30.2 °F28.4 °F93 %30.27 inVariable2.3 mphClear
4:50 AM30.2 °F28.4 °F93 %30.27 inVariable3.5 mphClear
5:20 AM30.2 °F28.4 °F93 %30.27 inCalmClear
5:50 AM30.2 °F28.4 °F93 %30.27 in5.6 miVariable3.5 mph
6:20 AM30.2 °F28.4 °F93 %30.24 in5.6 miCalm
6:50 AM32.0 °F30.2 °F93 %30.24 inCalmClear
7:20 AM33.8 °F32.0 °F93 %30.24 inVariable2.3 mphClear
7:50 AM37.4 °F33.8 °F87 %30.24 inVariable2.3 mphClear
8:20 AM41.0 °F35.6 °F81 %30.24 inCalmClear
8:50 AM42.8 °F35.6 °F76 %30.24 inCalmClear
9:20 AM44.6 °F35.6 °F71 %30.21 inVariable3.5 mphClear
9:50 AM46.4 °F32.0 °F57 %30.21 inVariable3.5 mphClear
10:20 AM48.2 °F32.0 °F54 %30.21 inVariable3.5 mphClear
10:50 AM50.0 °F32.0 °F50 %30.18 inWSW (250°)4.6 mphClear
11:20 AM51.8 °F32.0 °F47 %30.18 in6.2 miVariable4.6 mphPartly Cloudy
11:50 AM51.8 °F32.0 °F47 %30.15 in6.2 miVariable3.5 mphPartly Cloudy
12:20 PM53.6 °F33.8 °F47 %30.15 in6.2 miVariable6.9 mphPartly Cloudy
12:50 PM53.6 °F33.8 °F47 %30.12 in6.2 miVariable3.5 mphPartly Cloudy
1:20 PM55.4 °F32.0 °F41 %30.12 inVariable5.8 mphClear
1:50 PM55.4 °F30.2 °F38 %30.09 inSW (220°)8.1 mphClear
2:20 PM57.2 °F32.0 °F38 %30.09 inWSW (240°)9.2 mphClear
2:50 PM55.4 °F33.8 °F44 %30.09 inSSW (210°)8.1 mphClear
3:20 PM55.4 °F39.2 °F54 %30.06 inSSW (210°)8.1 mphClear
3:50 PM55.4 °F39.2 °F54 %30.06 in6.2 miSW (220°)10.4 mphPartly Cloudy
4:20 PM55.4 °F35.6 °F47 %30.06 in6.2 miSW (230°)12.7 mphPartly Cloudy
4:50 PM55.4 °F35.6 °F47 %30.06 in6.2 miWSW (250°)15.0 mphPartly Cloudy
5:20 PM53.6 °F37.4 °F54 %30.06 in6.2 miSW (230°)12.7 mphPartly Cloudy
5:50 PM53.6 °F37.4 °F54 %30.04 in6.2 miWSW (240°)11.5 mphPartly Cloudy
6:20 PM51.8 °F32.0 °F47 %30.04 inWSW (240°)13.8 mphClear
6:50 PM50.0 °F30.2 °F47 %30.06 inWSW (240°)12.7 mphClear
7:20 PM50.0 °F32.0 °F50 %30.06 inWSW (240°)9.2 mphClear
7:50 PM48.2 °F35.6 °F62 %30.06 inSW (220°)8.1 mphClear
8:20 PM48.2 °F37.4 °F66 %30.06 inSW (220°)8.1 mphClear
8:50 PM46.4 °F39.2 °F76 %30.06 inSW (220°)8.1 mphClear
9:20 PM46.4 °F39.2 °F76 %30.06 inSSW (210°)5.8 mphClear
9:50 PM44.6 °F39.2 °F81 %30.06 inSSW (210°)4.6 mphClear
10:20 PM44.6 °F39.2 °F81 %30.06 inSW (230°)4.6 mphClear
10:50 PM44.6 °F39.2 °F81 %30.06 in6.2 miSW (220°)3.5 mphPartly Cloudy
11:20 PM42.8 °F39.2 °F87 %30.06 in5.0 miVariable3.5 mphPartly Cloudy
11:50 PM42.8 °F39.2 °F87 %30.06 in5.0 miVariable3.5 mph
Hourly data recorded from EGKK, located 1.04 miles away from London, England







STORIES FROM OUR PARTNERS